Overview Statistics Trail Chart Weather Telemetry Raw packets
 

This is the latest recevied weather packets stored in our database for station/object AD0YN. If no packets are shown the sender has not sent any weather packets the latest 10 day(s).

<< 1 2 3 4 5 6 >>
Time Temp. Humidity Pressure Rain* Wind** Luminosity Snow
1788561882 35.56° C 43% 1012.1 hPa 0 mm - 206 W/m² -
1788561582 35.56° C 42% 1012.1 hPa 0 mm - 231 W/m² -
1788561281 36.11° C 44% 1012.1 hPa 0 mm - 244 W/m² -
1788560977 36.11° C 43% 1012.1 hPa 0 mm - 281 W/m² -
1788560673 35.56° C 44% 1012.3 hPa 0 mm - 297 W/m² -
1788560372 36.11° C 44% 1012 hPa 0 mm - 314 W/m² -
1788560067 36.11° C 43% 1012.1 hPa 0 mm - 333 W/m² -
1788559763 36.11° C 43% 1012.1 hPa 0 mm - 354 W/m² -
1788559462 36.11° C 42% 1012.3 hPa 0 mm - 368 W/m² -
1788559157 36.11° C 43% 1012.1 hPa 0 mm - 384 W/m² -
1788558852 36.11° C 42% 1012.1 hPa 0 mm - 408 W/m² -
1788558548 36.11° C 42% 1012.3 hPa 0 mm - 423 W/m² -
1788558243 36.11° C 41% 1012.2 hPa 0 mm - 442 W/m² -
1788557942 36.11° C 42% 1012.3 hPa 0 mm - 457 W/m² -
1788557637 36.11° C 43% 1012.5 hPa 0 mm - 477 W/m² -
1788557333 36.11° C 43% 1012.4 hPa 0 mm - 487 W/m² -
1788557032 36.67° C 42% 1012.5 hPa 0 mm - 506 W/m² -
1788556728 36.11° C 43% 1012.5 hPa 0 mm - 526 W/m² -
1788556423 36.67° C 43% 1012.6 hPa 0 mm - 534 W/m² -
1788556118 36.67° C 43% 1012.4 hPa 0 mm - 549 W/m² -
1788555817 36.11° C 43% 1012.7 hPa 0 mm - 564 W/m² -
1788555514 36.11° C 43% 1012.6 hPa 0 mm - 584 W/m² -
1788555209 36.11° C 42% 1012.7 hPa 0 mm - 599 W/m² -
1788554906 36.11° C 45% 1012.6 hPa 0 mm - 611 W/m² -
1788554602 36.11° C 45% 1012.7 hPa 0 mm - 618 W/m² -

* Rain latest hour (hover to see other rain measurements)
** Current wind speed in m/s (hover to see current wind gust speed)